DW7220 Weather Reports


Display with metric or nautical units.
time (UTC)temp
F
wind
direction
speed
MPH
gust
MPH
rain 1hr
in
rain 24hr
in
rain mn
in
humidity
%
barometer
mb
20260503021508 75 225 1.0 8.0 0.00 0.00 0.00 82 1011.2
20260503020034 76 195 2.0 5.0 0.00 0.00 0.00 79 1011.4
20260503014616 76 214 2.0 5.0 0.00 0.00 0.00 78 1011.2
20260503013103 76 219 0.0 4.0 0.00 0.00 0.00 78 1011.3
20260503011505 76 236 0.0 2.0 0.00 0.00 0.00 78 1011.1
20260503010017 76 214 0.0 3.0 0.00 0.00 0.00 78 1011.2
20260503004556 76 260 2.0 6.0 0.00 0.00 0.00 78 1011.4
20260503003106 76 285 3.0 9.0 0.00 0.00 0.00 77 1011.5
20260503001507 76 287 4.0 8.0 0.00 0.00 0.00 76 1011.1
20260503000028 76 333 5.0 12.0 0.00 0.00 0.00 75 1011.2
20260502234557 76 265 4.0 9.0 0.00 0.00 0.00 76 1011.2
20260502233010 76 281 3.0 8.0 0.00 0.00 0.00 79 1011.0
20260502231538 76 294 4.0 8.0 0.00 0.00 0.00 79 1011.0
20260502230046 81 288 7.0 15.0 0.00 0.00 0.00 64 1010.7
20260502224609 83 229 8.0 19.0 0.00 0.00 0.00 65 1010.1
20260502223017 85 293 4.0 13.0 0.00 0.00 0.00 64 1009.7
20260502221541 86 297 7.0 12.0 0.00 0.00 0.00 63 1009.7
20260502220059 86 292 5.0 11.0 0.00 0.00 0.00 61 1009.5
20260502214607 87 256 5.0 15.0 0.00 0.00 0.00 59 1009.6
20260502213012 88 276 7.0 14.0 0.00 0.00 0.00 55 1009.5
20260502211539 89 259 8.0 16.0 0.00 0.00 0.00 53 1009.3
20260502210049 89 307 5.0 16.0 0.00 0.00 0.00 53 1009.1
20260502204512 90 305 5.0 17.0 0.00 0.00 0.00 51 1009.2
20260502203034 90 252 8.0 17.0 0.00 0.00 0.00 49 1009.2
20260502201544 90 285 9.0 15.0 0.00 0.00 0.00 49 1009.1
20260502200058 90 261 7.0 22.0 0.00 0.00 0.00 52 1009.2
20260502194504 90 248 9.0 19.0 0.00 0.00 0.00 51 1009.3
20260502193028 90 257 12.0 20.0 0.00 0.00 0.00 50 1009.3
20260502191539 91 268 10.0 24.0 0.00 0.00 0.00 48 1009.4
20260502190058 91 220 11.0 18.0 0.00 0.00 0.00 50 1009.4
20260502184610 90 335 4.0 17.0 0.00 0.00 0.00 57 1009.5
20260502183040 90 255 7.0 14.0 0.00 0.00 0.00 57 1009.5
20260502181548 90 133 7.0 16.0 0.00 0.00 0.00 57 1009.7
20260502163039 88 203 5.0 16.0 0.00 0.00 0.00 63 1010.7
20260502161543 89 137 6.0 16.0 0.00 0.00 0.00 62 1010.9
20260502151604 85 132 8.0 17.0 0.00 0.00 0.00 71 1010.8
20260502123110 75 239 1.0 5.0 0.00 0.00 0.00 85 1010.8
20260502121534 73 111 1.0 6.0 0.00 0.00 0.00 89 1010.7
20260502114612 70 176 0.0 5.0 0.00 0.00 0.00 94 1010.7
20260502113122 69 174 0.0 4.0 0.00 0.00 0.00 95 1010.8
20260502111525 68 208 1.0 3.0 0.00 0.00 0.00 95 1011.0
20260502110048 68 208 0.0 3.0 0.00 0.00 0.00 95 1010.9
20260502104600 68 231 0.0 5.0 0.00 0.00 0.00 95 1010.8
20260502103016 68 218 0.0 5.0 0.00 0.00 0.00 94 1010.8
20260502101608 69 190 0.0 5.0 0.00 0.00 0.00 94 1010.7
20260502100105 69 209 0.0 3.0 0.00 0.00 0.00 94 1010.8
20260502090107 70 243 2.0 6.0 0.00 0.00 0.00 91 1010.6
20260502070104 73 237 0.0 3.0 0.00 0.00 0.00 88 1010.6
20260502064503 73 231 0.0 3.0 0.00 0.00 0.00 88 1010.5
20260502063037 73 245 0.0 5.0 0.00 0.00 0.00 88 1010.5
20260502061557 74 234 1.0 4.0 0.00 0.00 0.00 87 1010.7
20260502060115 74 190 1.0 5.0 0.00 0.00 0.00 86 1010.8
20260502054526 74 164 0.0 8.0 0.00 0.00 0.00 86 1011.1
20260502053035 75 214 2.0 8.0 0.00 0.00 0.00 86 1011.1
20260502051630 75 130 0.0 5.0 0.00 0.00 0.00 86 1011.3
20260502050011 75 237 0.0 4.0 0.00 0.00 0.00 86 1011.4
20260502044532 75 181 0.0 4.0 0.00 0.00 0.00 85 1011.4
20260502043044 76 192 0.0 4.0 0.00 0.00 0.00 85 1011.3
20260502041604 76 136 1.0 4.0 0.00 0.00 0.00 84 1011.4
20260502040015 76 193 0.0 7.0 0.00 0.00 0.00 83 1011.3
20260502034538 77 218 0.0 6.0 0.00 0.00 0.00 82 1011.4
20260502033108 77 221 1.0 6.0 0.00 0.00 0.00 81 1011.4
20260502031514 77 176 4.0 9.0 0.00 0.00 0.00 81 1011.3
20260502030038 77 150 1.0 8.0 0.00 0.00 0.00 81 1011.4
20260502024555 77 207 3.0 9.0 0.00 0.00 0.00 81 1011.4
20260502023020 78 141 2.0 8.0 0.00 0.00 0.00 80 1011.2